This demonstration page uses our WeatherBlox Daily Observations layout. Learn more.

Left ArrowRight Arrow

Hourly Observations for July 22, 2016

Temp ( °F °C ) Dew Point ( °F °C ) Humidity (%) Winds ( mph kmh ) Pressure ( in mb ) Visibility ( mi km ) Precip ( " mm )
12:53 am 00:53 Clear 82 27.8 68 20 63 63 S 7 11 29.89 1012 10 16 0.00 0.00
1:53 am 01:53 Clear 81 27.2 67 19.4 62 62 S 9 15 29.88 1012 10 16 0.00 0.00
2:53 am 02:53 Clear 79 26.1 67 19.4 67 67 S 8 13 29.88 1012 10 16 0.00 0.00
3:53 am 03:53 Clear 78 25.6 67 19.4 69 69 SSW 5 7 29.87 1012 10 16 0.00 0.00
4:53 am 04:53 Clear 74 23.3 68 20 82 82 SW 3 6 29.88 1012 10 16 0.00 0.00
5:53 am 05:53 Clear 73 22.8 67 19.4 81 81 Calm 29.88 1012 10 16 0.00 0.00
6:53 am 06:53 Sunny 75 23.9 67 19.4 76 76 Calm 29.90 1012 10 16 0.00 0.00
7:53 am 07:53 Sunny 77 25 68 20 74 74 SW 5 7 29.90 1012 10 16 0.00 0.00
8:53 am 08:53 Sunny 82 27.8 69 20.6 65 65 WSW 5 7 29.91 1013 10 16 0.00 0.00
9:53 am 09:53 Sunny 86 30 73 22.8 65 65 Calm 29.90 1013 10 16 0.00 0.00
10:53 am 10:53 Sunny 89 31.7 74 23.3 61 61 Calm 29.91 1013 10 16 0.00 0.00
11:53 am 11:53 Sunny 93 33.9 77 25 60 60 NNE 6 9 29.91 1013 10 16 0.00 0.00
12:53 pm 12:53 Sunny 94 34.4 76 24.4 56 56 SSW 8 13 29.92 1013 10 16 0.00 0.00
1:53 pm 13:53 Sunny 89 31.7 73 22.8 59 59 WSW 3 6 29.93 1013 10 16 0.00 0.00
2:08 pm 14:08 Sunny with Nearby Thunderstorms 89 31.7 71 21.7 55 55 SW 5 7 29.85 1011 10 16 0.00 0.00
2:53 pm 14:53 Mostly Sunny 87 30.6 72 22.2 61 61 VRB 5 7 29.92 1013 10 16 0.00 0.00
3:53 pm 15:53 Sunny 86 30 70 21.1 59 59 S 7 11 29.90 1013 10 16 0.00 0.00
4:53 pm 16:53 Sunny 88 31.1 71 21.7 57 57 WSW 6 9 29.89 1012 10 16 0.00 0.00
5:53 pm 17:53 Sunny 90 32.2 69 20.6 50 50 SSW 7 11 29.89 1012 10 16 0.00 0.00
6:53 pm 18:53 Sunny 90 32.2 68 20 48 48 Calm 29.86 1011 10 16 0.00 0.00
7:53 pm 19:53 Sunny 88 31.1 70 21.1 55 55 NNW 3 6 29.86 1011 10 16 0.00 0.00
8:53 pm 20:53 Hazy 83 28.3 72 22.2 70 70 Calm 29.85 1011 4 6 0.00 0.00
9:53 pm 21:53 Clear 81 27.2 71 21.7 72 72 Calm 29.85 1011 10 16 0.00 0.00
10:53 pm 22:53 Clear 81 27.2 72 22.2 74 74 E 7 11 29.87 1012 10 16 0.00 0.00
11:53 pm 23:53 Clear 80 26.7 71 21.7 74 74 ESE 9 15 29.85 1011 10 16 0.00 0.00

Powered by AerisWeather